Harvey, ND

5:40 PM CST on December 11, 2017 (GMT -0600)
Harvey

Weather History for K5H4 - July, 2013

Change the Weather History Date:

Tuesday, July 16, 2013

  Actual Average (KRUG) Record (KRUG)
Temperature  
Mean Temperature 71 °F -  
Max Temperature 80 °F 84 °F 98 °F (1949)
Min Temperature 62 °F 57 °F 45 °F (1958)
Cooling Degree Days 6    
Growing Degree Days 21 (Base 50)    
Moisture  
Dew Point 66 °F    
Average Humidity 85    
Maximum Humidity 100    
Minimum Humidity 65    
Precipitation  
Precipitation 0.00 in - - ()
Sea Level Pressure  
Sea Level Pressure 30.08 in    
Wind  
Wind Speed 10 mph (NE)    
Max Wind Speed 26 mph    
Max Gust Speed 34 mph    
Visibility 10 miles    
Events Rain    
Averages and records for this station are not official NWS values.
T = Trace of Precipitation, MM = Missing Value Source: NWS Daily Summary

Daily Weather History Graph

Daily Weather History Graph

Search for Another Location

Airport or City:

Trip Planner

Search our weather history database for the weather conditions in past years. The results will help you decide how hot, cold, wet, or windy it might be!

Date:

Astronomy

Jul. 16, 2013 Rise Set
Actual Time 5:58 AM CDT 9:32 PM CDT
Civil Twilight 5:19 AM CDT 10:11 PM CDT
Nautical Twilight 4:27 AM CDT 11:03 PM CDT
Astronomical Twilight 3:15 AM CDT 12:13 AM CDT
Moon 3:05 PM CDT (7/16) 12:42 AM CDT (7/16)
Length of Visible Light 16h 52m
Length of Day
15h 34m
First Quarter, 56% of the Moon is Illuminated
Jul 16
First Quarter
Jul 22
Full
Jul 29
Last Quarter
Aug 6
New
Aug 14
First Quarter

Hourly Weather History & Observations

Time (CDT) Temp. Heat Index Dew Point Humidity Pressure Visibility Wind Dir Wind Speed Gust Speed Precip Events Conditions
12:15 AM 73.4 °F - 68.0 °F 83% 29.96 in 10.0 mi South 13.8 mph 19.6 mph N/A   Clear
12:35 AM 73.4 °F - 68.0 °F 83% 29.97 in 10.0 mi South 13.8 mph 19.6 mph N/A   Clear
12:55 AM 73.4 °F - 66.2 °F 78% 29.97 in 10.0 mi South 10.4 mph 18.4 mph N/A   Clear
1:15 AM 73.4 °F - 64.4 °F 73% 29.98 in 10.0 mi South 10.4 mph - N/A   Scattered Clouds
1:35 AM 73.4 °F - 66.2 °F 78% 30.04 in 10.0 mi NW 26.5 mph 34.5 mph N/A   Mostly Cloudy
1:55 AM 68.0 °F - 64.4 °F 88% 30.03 in 10.0 mi NNW 15.0 mph - N/A   Mostly Cloudy
2:15 AM 66.2 °F - 64.4 °F 94% 30.02 in 10.0 mi NNE 4.6 mph - N/A   Partly Cloudy
2:35 AM 64.4 °F - 64.4 °F 100% 30.00 in 10.0 mi ESE 5.8 mph - N/A   Clear
2:55 AM 64.4 °F - 64.4 °F 100% 30.00 in 10.0 mi ENE 3.5 mph - N/A   Clear
3:15 AM 64.4 °F - 64.4 °F 100% 29.98 in 10.0 mi SE 9.2 mph - N/A   Clear
3:35 AM 64.4 °F - 64.4 °F 100% 29.98 in 10.0 mi ESE 6.9 mph - N/A   Clear
3:55 AM 64.4 °F - 64.4 °F 100% 29.98 in 10.0 mi SE 8.1 mph - N/A   Clear
4:15 AM 64.4 °F - 64.4 °F 100% 29.99 in 10.0 mi ESE 6.9 mph - N/A   Clear
4:35 AM 62.6 °F - 62.6 °F 100% 29.99 in 10.0 mi SE 5.8 mph - N/A   Clear
4:55 AM 64.4 °F - 64.4 °F 100% 30.00 in 10.0 mi SSE 4.6 mph - N/A   Clear
5:15 AM 64.4 °F - 64.4 °F 100% 30.03 in 10.0 mi West 5.8 mph - N/A   Scattered Clouds
5:35 AM 64.4 °F - 64.4 °F 100% 30.05 in 10.0 mi NNW 15.0 mph 20.7 mph N/A   Mostly Cloudy
5:55 AM 64.4 °F - 64.4 °F 100% 30.02 in 10.0 mi NE 4.6 mph - N/A   Partly Cloudy
6:15 AM 62.6 °F - 62.6 °F 100% 30.01 in 10.0 mi East 6.9 mph - N/A   Clear
6:35 AM 64.4 °F - 64.4 °F 100% 30.01 in 10.0 mi ESE 4.6 mph - N/A   Clear
6:55 AM 64.4 °F - 64.4 °F 100% 30.01 in 10.0 mi SE 6.9 mph - N/A   Clear
7:15 AM 66.2 °F - 66.2 °F 100% 30.00 in 10.0 mi SE 11.5 mph - N/A   Clear
7:35 AM 68.0 °F - 66.2 °F 94% 29.99 in 10.0 mi SSE 10.4 mph - N/A   Clear
7:55 AM 69.8 °F - 66.2 °F 88% 30.00 in 10.0 mi SSE 9.2 mph - N/A   Clear
8:15 AM 71.6 °F - 66.2 °F 83% 30.00 in 10.0 mi South 6.9 mph - N/A   Clear
8:35 AM 73.4 °F - 66.2 °F 78% 30.02 in 10.0 mi SSW 8.1 mph - N/A   Clear
8:55 AM 73.4 °F - 66.2 °F 78% 30.03 in 10.0 mi SSW 5.8 mph - N/A   Clear
9:15 AM 75.2 °F - 66.2 °F 73% 30.06 in 10.0 mi West 10.4 mph - N/A   Clear
9:35 AM 73.4 °F - 68.0 °F 83% 30.06 in 10.0 mi NNW 10.4 mph - N/A   Clear
9:55 AM 75.2 °F - 68.0 °F 78% 30.06 in 10.0 mi North 8.1 mph - N/A   Clear
10:15 AM 75.2 °F - 68.0 °F 78% 30.06 in 10.0 mi North 9.2 mph - N/A   Partly Cloudy
10:55 AM 75.2 °F - 68.0 °F 78% 30.06 in 10.0 mi North 6.9 mph - N/A   Partly Cloudy
11:15 AM 75.2 °F - 68.0 °F 78% 30.07 in 10.0 mi NNE 4.6 mph - N/A   Scattered Clouds
11:35 AM 75.2 °F - 68.0 °F 78% 30.08 in 10.0 mi NE 3.5 mph - N/A   Mostly Cloudy
11:55 AM 77.0 °F - 68.0 °F 74% 30.08 in 10.0 mi SSE 6.9 mph - N/A   Partly Cloudy
12:15 PM 77.0 °F - 68.0 °F 74% 30.08 in 10.0 mi Calm Calm - N/A   Clear
12:35 PM 77.0 °F - 68.0 °F 74% 30.09 in 10.0 mi North 9.2 mph - N/A   Clear
12:55 PM 78.8 °F - 68.0 °F 69% 30.10 in 10.0 mi North 8.1 mph - N/A   Clear
1:15 PM 78.8 °F - 68.0 °F 69% 30.11 in 10.0 mi North 8.1 mph - N/A   Partly Cloudy
1:35 PM 77.0 °F - 68.0 °F 74% 30.11 in 10.0 mi NNW 6.9 mph - N/A   Mostly Cloudy
1:55 PM 80.6 °F 83.2 °F 68.0 °F 65% 30.11 in 10.0 mi NW 13.8 mph 17.3 mph N/A   Partly Cloudy
2:15 PM 80.6 °F 83.2 °F 68.0 °F 65% 30.11 in 10.0 mi North 10.4 mph 18.4 mph N/A   Scattered Clouds
2:35 PM 80.6 °F 83.9 °F 69.8 °F 70% 30.11 in 10.0 mi North 13.8 mph 18.4 mph N/A   Partly Cloudy
3:55 PM 77.0 °F - 68.0 °F 74% 30.14 in 10.0 mi North 12.7 mph 24.2 mph N/A   Mostly Cloudy
4:15 PM 77.0 °F - 68.0 °F 74% 30.14 in 10.0 mi NNE 15.0 mph 20.7 mph N/A   Mostly Cloudy
4:35 PM 78.8 °F - 68.0 °F 69% 30.13 in 10.0 mi NNE 11.5 mph 18.4 mph N/A   Scattered Clouds
4:55 PM 77.0 °F - 68.0 °F 74% 30.13 in 10.0 mi NE 17.3 mph - N/A   Partly Cloudy
5:15 PM 77.0 °F - 68.0 °F 74% 30.13 in 10.0 mi ENE 11.5 mph 16.1 mph N/A   Clear
5:35 PM 77.0 °F - 68.0 °F 74% 30.14 in 10.0 mi NNE 12.7 mph 16.1 mph N/A   Clear
5:55 PM 77.0 °F - 68.0 °F 74% 30.15 in 10.0 mi North 11.5 mph - N/A   Scattered Clouds
6:15 PM 77.0 °F - 68.0 °F 74% 30.15 in 10.0 mi North 11.5 mph - N/A   Scattered Clouds
6:35 PM 75.2 °F - 66.2 °F 73% 30.14 in 10.0 mi North 9.2 mph - N/A   Scattered Clouds
6:55 PM 73.4 °F - 66.2 °F 78% 30.14 in 10.0 mi North 10.4 mph - N/A   Scattered Clouds
7:15 PM 73.4 °F - 66.2 °F 78% 30.14 in 10.0 mi North 13.8 mph - N/A   Scattered Clouds
7:35 PM 71.6 °F - 66.2 °F 83% 30.13 in 10.0 mi NNE 10.4 mph - N/A   Partly Cloudy
7:55 PM 71.6 °F - 66.2 °F 83% 30.14 in 10.0 mi NNE 9.2 mph 16.1 mph N/A   Clear
8:15 PM 71.6 °F - 66.2 °F 83% 30.16 in 10.0 mi North 11.5 mph - N/A   Clear
8:35 PM 69.8 °F - 66.2 °F 88% 30.14 in 10.0 mi NNE 9.2 mph - N/A   Clear
8:55 PM 69.8 °F - 66.2 °F 88% 30.15 in 10.0 mi North 6.9 mph - N/A   Clear
9:15 PM 68.0 °F - 66.2 °F 94% 30.17 in 10.0 mi North 6.9 mph - N/A   Clear
9:35 PM 68.0 °F - 66.2 °F 94% 30.18 in 10.0 mi NNE 8.1 mph - N/A   Scattered Clouds
9:55 PM 68.0 °F - 64.4 °F 88% 30.18 in 10.0 mi NE 8.1 mph - N/A   Partly Cloudy
10:15 PM 68.0 °F - 64.4 °F 88% 30.21 in 10.0 mi North 8.1 mph - N/A   Mostly Cloudy
10:35 PM 68.0 °F - 66.2 °F 94% 30.21 in 10.0 mi North 6.9 mph - N/A   Overcast
10:55 PM 68.0 °F - 64.4 °F 88% 30.22 in 10.0 mi NNE 6.9 mph - N/A   Overcast
11:15 PM 68.0 °F - 64.4 °F 88% 30.21 in 10.0 mi NNE 8.1 mph - N/A   Overcast
11:35 PM 66.2 °F - 64.4 °F 94% 30.21 in 10.0 mi NNE 5.8 mph - N/A   Overcast
11:55 PM 66.2 °F - 66.2 °F 100% 30.22 in 10.0 mi North 5.8 mph - N/A Rain Light Rain